Simultaneous Nadir Overpasses (SNOs) Predictions

Prediction of SNOs between METOP-A and NOAA-19 Satellite Orbit:

Table of predicted SNOs for the next 14.0 days since TLE Epoch: 8/9/2019
Index Date (METOP-A) Time (METOP-A) Lat,Lon (METOP-A) SZA (METOP-A ) Date (NOAA-19) Time (NOAA-19) Lat,Lon (NOAA-19) SZA (NOAA-19 ) Distance(km) Time Diff (sec)
1 08/09/2019 23:43:11 79.87,-163.22 64.32 08/09/2019 23:42:09 79.85,-163.21 64.28 3.03 62
2 08/10/2019 00:33:53 -79.85, 3.88 115.71 08/10/2019 00:33:07 -79.87, 3.77 115.70 3.27 46
3 08/10/2019 01:24:33 79.85, 171.21 64.30 08/10/2019 01:24:10 79.85, 171.23 64.30 0.45 23
4 08/10/2019 02:15:13 -79.86, -21.40 115.68 08/10/2019 02:15:06 -79.85, -21.49 115.69 1.98 7
5 08/10/2019 03:05:53 79.86, 145.94 64.33 08/10/2019 03:06:09 79.83, 145.97 64.31 2.76 16
6 08/10/2019 03:56:35 -79.83, -46.96 115.69 08/10/2019 03:57:07 -79.86, -47.06 115.67 3.54 32
7 08/10/2019 04:47:15 79.83, 120.38 64.32 08/10/2019 04:48:10 79.84, 120.41 64.34 0.88 55
8 08/10/2019 05:37:56 -79.84, -72.23 115.66 08/10/2019 05:39:07 -79.84, -72.33 115.66 1.85 71
9 08/20/2019 20:42:14 -79.88, 61.95 112.28 08/20/2019 20:41:00 -79.89, 62.03 112.28 1.58 74
10 08/20/2019 21:32:54 79.87,-130.81 67.73 08/20/2019 21:32:06 79.90,-130.93 67.74 3.72 48
11 08/20/2019 22:23:35 -79.89, 36.67 112.24 08/20/2019 22:23:00 -79.87, 36.76 112.27 3.30 35
12 08/20/2019 23:14:15 79.88,-156.09 67.76 08/20/2019 23:14:06 79.88,-156.19 67.75 1.93 9
13 08/21/2019 00:04:57 -79.87, 11.11 112.25 08/21/2019 00:05:01 -79.87, 11.19 112.24 1.73 4
14 08/21/2019 00:55:36 79.89, 178.63 67.79 08/21/2019 00:56:06 79.86, 178.55 67.77 3.33 30
15 08/21/2019 01:46:18 -79.87, -14.17 112.22 08/21/2019 01:47:01 -79.85, -14.07 112.23 2.97 43
16 08/21/2019 02:36:58 79.86, 153.07 67.78 08/21/2019 02:38:07 79.87, 152.98 67.79 1.84 69




NCC Satellite Simultaneous Nadir Overpasses (SNOs) Prediction Service
